When you browse on this site, cookies collect data to enhance your experience and personalize the content and advertising you see.
Visit our Privacy Policy to learn more. By continuing to use the site, you agree to this use of cookies and data.
  • en Suisse
  • Liste des pays
  • À 7 jours
  • Température de l'eau
  • Carte météo
  • Widgets météo
  • user-avatar
    Se connecter

    Météo par heure à Brisbane

    Ce jour, 3 Juin, Mercredi

    Heure Température Précipitation Vent Pression Humidité
    00:00 +10°C° 0 mm 3 m/s 763 mmHg 56%
    01:00 +9°C° 0 mm 3 m/s 763 mmHg 59%
    02:00 +9°C° 0 mm 3 m/s 763 mmHg 61%
    03:00 +9°C° 0 mm 3 m/s 763 mmHg 63%
    04:00 +8°C° 0 mm 3 m/s 763 mmHg 62%
    05:00 +8°C° 0 mm 3 m/s 763 mmHg 63%
    06:00 +8°C° 0 mm 3 m/s 764 mmHg 63%
    07:00 +8°C° 0 mm 3 m/s 764 mmHg 64%
    08:00 +10°C° 0 mm 3 m/s 764 mmHg 57%
    09:00 +12°C° 0 mm 3 m/s 764 mmHg 51%
    10:00 +16°C° 0 mm 3 m/s 764 mmHg 46%
    11:00 +18°C° 0 mm 2 m/s 764 mmHg 41%
    12:00 +20°C° 0 mm 2 m/s 763 mmHg 36%
    13:00 +22°C° 0 mm 1 m/s 762 mmHg 32%
    14:00 +22°C° 0 mm 1 m/s 763 mmHg 34%
    15:00 +20°C° 0 mm 2 m/s 763 mmHg 35%
    16:00 +20°C° 0 mm 2 m/s 763 mmHg 37%
    17:00 +18°C° 0 mm 3 m/s 764 mmHg 44%
    18:00 +17°C° 0 mm 3 m/s 765 mmHg 51%
    19:00 +14°C° 0 mm 3 m/s 765 mmHg 58%
    20:00 +14°C° 0 mm 3 m/s 766 mmHg 61%
    21:00 +13°C° 0 mm 3 m/s 766 mmHg 65%
    22:00 +13°C° 0 mm 3 m/s 767 mmHg 68%
    23:00 +12°C° 0 mm 3 m/s 767 mmHg 69%

    Demain, 4 Juin, Jeudi

    Heure Température Précipitation Vent Pression Humidité
    00:00 +12°C° 0 mm 3 m/s 767 mmHg 70%
    01:00 +11°C° 0 mm 3 m/s 767 mmHg 71%
    02:00 +11°C° 0 mm 3 m/s 767 mmHg 71%
    03:00 +11°C° 0 mm 3 m/s 767 mmHg 71%
    04:00 +10°C° 0 mm 3 m/s 767 mmHg 71%
    05:00 +10°C° 0 mm 3 m/s 768 mmHg 71%
    06:00 +10°C° 0 mm 3 m/s 768 mmHg 71%
    07:00 +10°C° 0 mm 3 m/s 768 mmHg 71%
    08:00 +13°C° 0 mm 3 m/s 769 mmHg 66%
    09:00 +16°C° 0 mm 3 m/s 769 mmHg 60%
    10:00 +18°C° 0 mm 4 m/s 769 mmHg 54%
    11:00 +19°C° 0 mm 4 m/s 769 mmHg 52%
    12:00 +20°C° 0 mm 4 m/s 768 mmHg 50%
    13:00 +21°C° 0 mm 4 m/s 768 mmHg 48%
    14:00 +20°C° 0 mm 4 m/s 768 mmHg 50%
    15:00 +20°C° 0 mm 4 m/s 767 mmHg 53%
    16:00 +19°C° 0 mm 4 m/s 767 mmHg 56%
    17:00 +18°C° 0 mm 4 m/s 768 mmHg 60%
    18:00 +17°C° 0 mm 3 m/s 768 mmHg 64%
    19:00 +16°C° 0 mm 3 m/s 769 mmHg 69%
    20:00 +14°C° 0 mm 3 m/s 769 mmHg 70%
    21:00 +14°C° 0 mm 3 m/s 769 mmHg 72%
    22:00 +14°C° 0 mm 3 m/s 769 mmHg 74%
    23:00 +13°C° 0 mm 3 m/s 769 mmHg 75%

    Après-demain, 5 Juin, Vendredi

    Heure Température Précipitation Vent Pression Humidité
    00:00 +13°C° 0 mm 3 m/s 769 mmHg 77%
    01:00 +12°C° 0 mm 3 m/s 769 mmHg 78%
    02:00 +12°C° 0 mm 3 m/s 769 mmHg 79%
    03:00 +11°C° 0 mm 3 m/s 768 mmHg 79%
    04:00 +12°C° 0 mm 2 m/s 768 mmHg 80%
    05:00 +12°C° 0 mm 2 m/s 769 mmHg 80%
    06:00 +12°C° 0 mm 2 m/s 769 mmHg 81%
    07:00 +12°C° 0 mm 2 m/s 769 mmHg 81%
    08:00 +14°C° 0 mm 2 m/s 769 mmHg 73%
    09:00 +17°C° 0 mm 3 m/s 769 mmHg 64%
    10:00 +19°C° 0 mm 3 m/s 769 mmHg 56%
    11:00 +20°C° 0 mm 3 m/s 768 mmHg 52%
    12:00 +21°C° 0 mm 3 m/s 768 mmHg 49%
    13:00 +22°C° 0 mm 3 m/s 767 mmHg 45%
    14:00 +22°C° 0 mm 3 m/s 767 mmHg 49%
    15:00 +21°C° 0 mm 3 m/s 766 mmHg 52%
    16:00 +20°C° 0 mm 3 m/s 766 mmHg 55%
    17:00 +19°C° 0 mm 3 m/s 767 mmHg 61%
    18:00 +18°C° 0 mm 2 m/s 767 mmHg 67%
    19:00 +16°C° 0 mm 2 m/s 767 mmHg 74%
    20:00 +16°C° 0 mm 2 m/s 767 mmHg 76%
    21:00 +15°C° 0 mm 2 m/s 767 mmHg 77%
    22:00 +15°C° 0 mm 1 m/s 767 mmHg 79%
    23:00 +14°C° 0 mm 2 m/s 767 mmHg 80%

    6 Juin, Samedi

    Heure Température Précipitation Vent Pression Humidité
    00:00 +14°C° 0 mm 2 m/s 767 mmHg 81%
    01:00 +13°C° 0 mm 2 m/s 766 mmHg 81%
    02:00 +13°C° 0.1 mm 2 m/s 766 mmHg 81%
    03:00 +13°C° 0.1 mm 2 m/s 766 mmHg 81%
    04:00 +13°C° 0.1 mm 2 m/s 766 mmHg 81%
    05:00 +13°C° 0.1 mm 2 m/s 766 mmHg 80%
    06:00 +14°C° 0.1 mm 2 m/s 766 mmHg 80%
    07:00 +14°C° 0.1 mm 2 m/s 767 mmHg 79%
    08:00 +16°C° 0 mm 2 m/s 766 mmHg 73%
    09:00 +17°C° 0 mm 2 m/s 766 mmHg 67%
    10:00 +19°C° 0 mm 2 m/s 766 mmHg 61%
    11:00 +20°C° 0 mm 2 m/s 765 mmHg 56%
    12:00 +23°C° 0 mm 2 m/s 765 mmHg 51%
    13:00 +24°C° 0 mm 2 m/s 764 mmHg 46%
    14:00 +23°C° 0 mm 2 m/s 764 mmHg 51%
    15:00 +21°C° 0 mm 2 m/s 764 mmHg 56%
    16:00 +20°C° 0 mm 2 m/s 763 mmHg 60%
    17:00 +19°C° 0 mm 2 m/s 764 mmHg 66%
    18:00 +18°C° 0 mm 2 m/s 764 mmHg 71%
    19:00 +18°C° 0 mm 1 m/s 764 mmHg 77%
    20:00 +16°C° 0 mm 1 m/s 764 mmHg 78%
    21:00 +16°C° 0 mm 1 m/s 764 mmHg 80%
    22:00 +15°C° 0 mm 0 m/s 764 mmHg 81%
    23:00 +16°C° 0.1 mm 1 m/s 764 mmHg 82%

    7 Juin, Dimanche

    Heure Température Précipitation Vent Pression Humidité
    00:00 +15°C° 0.1 mm 1 m/s 764 mmHg 83%
    01:00 +15°C° 0.1 mm 1 m/s 764 mmHg 85%
    02:00 +15°C° 0.1 mm 1 m/s 764 mmHg 85%
    03:00 +14°C° 0.1 mm 2 m/s 763 mmHg 86%
    04:00 +14°C° 0.1 mm 2 m/s 763 mmHg 87%
    05:00 +14°C° 0 mm 2 m/s 763 mmHg 87%
    06:00 +13°C° 0 mm 2 m/s 764 mmHg 87%
    07:00 +13°C° 0 mm 2 m/s 764 mmHg 87%
    08:00 +15°C° 0 mm 2 m/s 764 mmHg 77%
    09:00 +18°C° 0 mm 2 m/s 764 mmHg 67%
    10:00 +20°C° 0 mm 2 m/s 764 mmHg 57%
    11:00 +21°C° 0 mm 2 m/s 763 mmHg 50%
    12:00 +23°C° 0 mm 2 m/s 762 mmHg 43%
    13:00 +24°C° 0 mm 2 m/s 762 mmHg 36%
    14:00 +24°C° 0 mm 2 m/s 761 mmHg 36%
    15:00 +23°C° 0 mm 2 m/s 761 mmHg 36%
    16:00 +23°C° 0 mm 2 m/s 761 mmHg 36%
    17:00 +20°C° 0 mm 2 m/s 762 mmHg 40%
    18:00 +18°C° 0 mm 2 m/s 763 mmHg 44%
    19:00 +17°C° 0 mm 3 m/s 763 mmHg 47%
    20:00 +16°C° 0 mm 3 m/s 763 mmHg 50%
    21:00 +15°C° 0 mm 2 m/s 764 mmHg 54%
    22:00 +14°C° 0 mm 2 m/s 764 mmHg 57%
    23:00 +13°C° 0 mm 2 m/s 764 mmHg 59%

    8 Juin, Lundi

    Heure Température Précipitation Vent Pression Humidité
    00:00 +13°C° 0 mm 2 m/s 764 mmHg 61%
    01:00 +12°C° 0 mm 2 m/s 764 mmHg 63%
    02:00 +12°C° 0 mm 2 m/s 764 mmHg 65%
    03:00 +10°C° 0 mm 2 m/s 764 mmHg 67%
    04:00 +10°C° 0 mm 2 m/s 764 mmHg 69%
    05:00 +10°C° 0 mm 2 m/s 765 mmHg 70%
    06:00 +10°C° 0 mm 2 m/s 765 mmHg 72%
    07:00 +10°C° 0 mm 2 m/s 766 mmHg 74%
    08:00 +13°C° 0 mm 2 m/s 766 mmHg 66%
    09:00 +15°C° 0 mm 2 m/s 766 mmHg 58%
    10:00 +17°C° 0 mm 2 m/s 766 mmHg 49%
    11:00 +18°C° 0 mm 3 m/s 766 mmHg 45%
    12:00 +20°C° 0 mm 3 m/s 766 mmHg 41%
    13:00 +21°C° 0 mm 3 m/s 765 mmHg 37%
    14:00 +20°C° 0 mm 3 m/s 766 mmHg 37%
    15:00 +20°C° 0 mm 3 m/s 766 mmHg 36%
    16:00 +20°C° 0 mm 4 m/s 766 mmHg 36%
    17:00 +18°C° 0 mm 3 m/s 767 mmHg 42%
    18:00 +16°C° 0 mm 3 m/s 767 mmHg 48%
    19:00 +14°C° 0 mm 3 m/s 768 mmHg 54%
    20:00 +14°C° 0 mm 3 m/s 768 mmHg 59%
    21:00 +13°C° 0 mm 3 m/s 768 mmHg 64%
    22:00 +13°C° 0 mm 3 m/s 768 mmHg 69%
    23:00 +13°C° 0 mm 3 m/s 768 mmHg 71%
    Voir plus